Temperature
10 10 9 9 9 9 9 9 9 9 9 9 9 9 9 9 9 9 10 10 10 10 10 11 11 11 11 12 12 12 12 12 12 13 13 14 14 14 15 15 15 15 16
10 10 9 9 9 9 9 9 9 9 9 9 9 9 9 9 9 9 9 9 10 10 10 10 10 11 11 11 11 11 12 12 12 12 13 13 14 14 14 15 15 15 15
10 10 10 9 9 9 9 9 9 8 8 8 9 8 9 9 9 9 9 9 9 9 10 10 10 10 10 11 11 11 11 12 12 12 12 13 13 14 14 14 14 14 15
10 10 9 9 9 9 9 9 8 8 8 8 8 8 8 8 9 9 9 9 9 9 9 9 9 10 10 10 10 11 11 11 11 12 12 12 13 13 13 14 14 14 14
10 10 9 9 9 9 9 8 8 8 8 8 8 8 8 8 9 9 8 9 9 9 9 9 9 9 10 10 10 10 10 11 11 11 12 12 12 13 13 13 13 13 14
10 10 9 9 9 9 9 8 8 8 8 8 8 8 8 8 9 8 8 8 8 8 9 9 9 9 9 10 10 10 10 10 11 11 11 12 12 12 12 13 13 13 13
10 9 9 9 9 9 9 9 8 8 8 8 8 8 8 8 8 8 8 8 8 8 8 8 9 9 9 9 9 10 10 10 10 10 11 11 11 12 12 12 12 13 13
10 10 9 9 9 9 9 9 8 8 8 8 8 8 8 8 8 8 8 8 8 8 8 8 8 9 9 9 9 9 9 10 10 10 10 11 11 11 12 12 12 12 12
10 10 9 9 9 9 9 9 8 8 8 8 8 8 8 8 8 8 8 8 8 8 8 8 8 8 8 9 9 9 9 9 10 10 10 10 10 11 11 11 11 11 12
10 9 9 9 9 9 9 9 9 8 8 8 8 8 8 8 8 8 8 8 8 8 8 8 8 8 8 9 9 9 9 9 9 10 10 10 10 10 11 11 11 11 11
10 9 9 9 9 9 9 9 8 8 8 8 8 8 8 8 8 8 8 8 8 8 8 8 8 8 8 8 9 8 9 9 9 9 9 10 10 10 10 10 11 11 11
9 9 9 9 9 9 9 9 9 9 9 9 9 8 8 8 8 8 8 8 8 8 8 8 8 8 8 8 8 8 8 8 9 9 9 10 10 10 10 10 10 11 11
9 9 9 9 9 9 9 9 9 9 9 9 9 9 9 9 8 8 8 8 8 8 8 8 8 8 8 8 8 8 8 8 9 9 9 10 10 10 10 10 10 10 11
10 10 10 10 10 10 9 10 10 10 10 9 9 9 9 9 8 8 7 7 7 7 7 8 8 8 8 8 8 8 8 8 9 9 9 9 9 10 9 10 10 10 10
10 10 10 10 10 10 10 10 9 9 9 9 9 9 8 8 8 8 8 7 7 7 7 7 8 8 8 8 8 8 8 8 8 9 9 9 9 9 9 9 9 9 10
10 10 10 11 10 10 10 10 10 10 9 9 9 9 8 8 8 8 8 8 8 8 8 7 8 8 8 8 8 8 8 8 8 9 9 9 9 9 9 9 9 9 10
10 10 10 11 11 11 11 11 10 10 10 10 9 9 9 8 8 8 8 8 8 8 8 8 8 8 8 8 8 8 8 8 8 8 9 9 9 9 9 9 9 10 10
10 10 10 10 10 11 11 11 11 11 10 10 9 9 9 8 8 8 8 8 8 8 8 8 8 8 8 8 8 8 8 8 8 8 8 9 9 9 9 9 9 10 10
10 10 10 10 10 11 11 11 11 11 11 10 10 9 9 9 8 8 8 8 8 8 8 8 8 8 8 8 8 8 8 8 8 8 8 8 9 9 9 9 9 9 9
10 10 10 10 10 11 11 11 11 11 11 10 10 9 9 9 9 8 8 8 8 8 8 8 8 8 8 8 8 8 8 8 8 8 8 8 8 9 9 9 9 9 9
11 11 10 10 11 11 11 11 11 11 11 10 10 9 9 9 9 9 8 8 8 8 8 8 8 8 8 8 8 8 8 8 8 8 8 8 8 8 8 9 9 9 9
11 11 11 11 11 11 10 10 11 11 11 10 10 10 9 9 9 9 8 8 8 8 8 8 8 8 8 8 8 8 8 8 8 8 8 8 8 8 8 8 9 9 9
10 11 11 11 11 11 10 10 10 10 10 10 10 10 9 9 9 8 8 8 8 8 8 8 8 8 8 8 8 8 8 8 8 8 8 8 8 8 8 8 9 9 9
11 11 11 11 11 11 11 11 10 10 10 10 10 10 9 9 9 8 8 8 8 8 8 8 8 8 8 8 8 8 8 8 8 8 8 8 8 8 8 8 8 9 9
11 11 11 11 11 11 11 10 10 10 10 10 10 10 9 9 9 8 8 8 8 8 8 8 8 8 8 8 8 8 8 8 8 8 8 8 8 8 8 8 8 8 8
11 11 11 11 11 10 10 10 10 10 10 10 10 9 9 9 9 9 8 8 8 8 8 8 8 7 7 8 8 8 8 8 8 8 8 8 8 8 8 8 8 8 8
Wind_Speed
7 7 8 8 8 8 8 9 9 9 9 10 10 10 10 11 10 10 11 11 11 11 11 11 12 11 9 8 8 9 9 9 10 9 6 6 6 7 6 8 12 14 16
7 7 8 8 8 9 9 9 9 10 10 10 10 11 11 11 10 11 12 12 12 12 12 11 12 10 11 10 9 9 9 9 9 10 7 6 7 7 6 6 7 11 12
7 8 8 8 8 9 9 9 9 10 10 10 10 11 11 11 11 11 11 12 12 12 12 12 12 11 11 9 9 9 9 9 8 9 8 6 5 5 5 6 5 4 8
7 8 8 9 9 9 9 9 9 10 10 10 10 11 11 11 11 11 11 11 12 12 11 11 11 11 11 10 10 10 9 9 9 8 7 6 5 6 6 6 5 5 5
8 8 9 9 9 9 9 9 9 10 10 10 10 10 10 10 9 9 10 11 11 11 11 11 11 10 9 9 9 9 9 8 8 7 7 6 6 6 6 6 6 6 5
8 8 8 9 9 9 9 9 9 10 10 10 10 10 10 9 5 6 10 12 12 12 11 10 10 10 10 10 11 10 9 9 9 8 7 6 6 7 5 6 7 7 5
8 8 8 9 9 9 10 10 10 10 10 10 10 10 10 8 4 7 9 12 13 12 11 10 9 9 8 10 11 11 10 9 9 9 8 6 6 5 6 7 7 7 5
7 8 8 9 10 10 10 10 10 9 10 9 9 10 10 7 4 7 9 11 13 12 11 11 10 9 8 8 9 9 9 8 9 9 7 6 5 5 5 6 5 5 4
7 8 9 9 10 10 10 10 10 9 10 9 9 9 10 8 4 6 9 10 10 11 10 9 9 8 5 5 8 8 8 7 5 3 2 2 1 2 3 4 6 6 5
8 8 9 9 9 10 10 10 9 9 9 9 9 9 9 9 4 5 7 8 9 8 7 7 6 7 4 5 8 8 9 8 6 6 5 5 5 5 6 7 7 8 6
8 8 8 8 9 9 9 9 9 9 9 9 9 9 8 7 5 4 6 7 8 8 7 6 3 7 7 7 8 8 7 6 7 7 7 7 6 6 6 6 6 6 7
8 8 8 8 8 8 9 9 8 8 9 8 7 8 7 5 4 3 5 7 9 8 7 5 1 4 6 7 7 5 5 6 7 7 6 7 7 6 6 6 6 6 5
8 8 8 9 8 8 9 9 8 7 7 8 8 8 8 7 3 5 7 8 8 7 6 4 3 4 6 8 8 8 8 8 8 7 7 7 7 6 6 5 6 5 5
8 8 8 8 8 7 7 7 8 8 8 8 8 8 8 7 7 6 5 5 7 7 6 5 7 8 9 6 6 9 9 8 7 8 7 6 6 7 7 6 6 6 6
8 8 8 7 7 8 7 6 7 7 6 7 8 8 9 9 8 9 8 7 6 5 5 5 5 5 6 7 7 8 8 8 8 8 7 7 7 7 7 7 7 7 7
8 7 7 7 6 7 7 7 4 7 6 9 10 10 8 7 10 10 10 10 9 8 6 5 5 4 5 5 6 7 7 7 8 8 8 8 8 8 7 7 8 8 8
8 8 7 7 7 7 7 8 8 5 10 12 11 11 11 11 11 11 10 9 8 6 5 5 4 4 4 5 5 5 6 7 7 7 7 8 7 7 7 8 9 9 8
8 7 7 7 7 7 7 8 8 8 8 5 5 9 8 9 9 9 8 7 5 5 5 4 4 4 3 4 4 5 5 5 6 7 7 8 8 8 8 9 9 9 9
8 7 6 7 8 8 8 8 8 8 8 7 6 1 5 7 8 8 6 5 4 4 4 4 4 4 4 4 4 5 5 5 6 7 7 8 8 8 8 9 9 9 9
7 7 7 8 8 8 7 8 8 7 7 7 6 6 5 5 4 2 3 4 4 4 4 4 4 4 4 4 4 4 5 5 6 7 8 8 8 8 9 10 9 9 10
7 6 7 8 8 7 7 8 7 7 7 7 6 4 4 7 6 5 5 4 4 4 4 4 4 3 3 3 4 5 6 6 6 6 7 7 8 8 8 9 9 9 9
8 8 7 7 7 7 7 8 7 7 7 7 6 3 3 4 5 5 5 5 5 4 4 4 4 4 3 3 3 4 5 6 5 6 7 7 7 8 9 9 9 9 9
9 9 8 7 7 6 7 7 7 7 7 6 6 5 4 4 4 4 5 5 4 5 4 4 4 4 3 3 3 4 5 5 5 6 7 8 8 8 9 10 11 10 10
9 9 9 8 7 7 7 6 6 6 6 6 6 5 5 5 5 4 4 4 4 4 4 4 4 5 5 4 4 4 3 4 6 6 8 8 9 9 9 10 11 12 11
9 9 9 9 8 7 7 6 6 6 6 5 6 5 5 5 5 4 4 4 4 4 5 5 4 4 5 6 5 4 5 6 6 6 6 7 9 9 10 11 10 11 11
9 10 9 8 8 7 7 6 6 6 5 5 5 5 5 5 5 4 4 4 4 4 4 4 5 5 6 5 5 6 5 5 5 7 7 7 8 8 9 9 11 10 11
Wind_Direction
323 321 317 313 312 306 299 300 301 299 299 294 292 291 288 284 280 273 271 273 266 265 263 258 255 255 255 254 249 249 249 248 260 266 259 256 244 241 232 222 216 206 200
325 319 316 315 312 308 306 305 301 297 295 294 291 289 286 284 281 277 274 273 269 265 263 261 260 256 249 251 252 250 250 250 254 263 262 250 241 231 222 218 211 204 197
327 321 321 319 317 311 309 307 303 300 297 295 291 287 286 286 282 277 275 274 271 268 265 260 257 255 253 251 250 249 249 249 249 257 259 250 239 220 211 208 200 194 190
326 323 323 321 318 314 312 309 306 304 301 300 296 292 289 287 285 280 277 275 274 270 266 260 256 252 250 248 249 246 247 251 248 249 252 245 227 209 198 190 185 182 178
324 324 324 322 320 316 315 313 310 306 304 305 301 297 293 287 285 291 290 282 277 273 267 261 256 254 267 264 261 255 248 245 246 241 243 242 226 201 196 186 177 166 167
323 325 327 324 323 322 319 316 312 309 308 306 302 299 296 293 351 331 294 288 281 273 269 263 258 244 240 240 253 263 267 254 251 246 238 238 230 213 199 188 174 164 171
322 324 327 326 324 323 320 318 316 314 310 307 304 300 296 298 295 282 278 281 277 273 270 264 259 249 232 240 229 227 239 245 250 251 246 243 234 218 202 196 193 183 174
321 324 326 325 323 322 319 317 317 314 311 309 306 303 299 299 278 276 278 270 270 267 263 260 257 258 247 248 242 235 234 228 227 232 239 241 244 231 216 204 197 178 157
324 326 326 324 321 320 319 319 318 314 311 310 307 304 302 302 289 280 283 279 271 268 264 258 252 246 229 237 239 239 235 229 213 201 231 240 273 235 226 206 190 177 175
325 323 321 318 316 316 316 316 315 311 308 309 308 305 302 303 301 282 286 285 284 279 267 255 240 237 219 224 236 238 234 229 224 201 197 207 213 211 213 219 208 194 181
319 317 315 314 312 311 312 311 310 309 313 311 309 306 303 301 290 267 279 285 292 289 280 269 246 177 202 226 246 249 245 242 227 223 215 215 212 211 213 218 220 214 200
313 312 313 314 313 317 314 310 310 310 309 309 310 312 312 306 296 287 269 271 291 287 282 282 267 159 203 227 238 231 224 236 231 225 224 219 213 213 213 215 211 217 223
309 310 311 312 311 310 311 312 310 309 315 324 325 325 327 329 311 219 247 261 268 274 283 307 289 225 225 226 222 218 221 227 227 224 225 223 218 210 204 207 208 209 213
305 308 308 307 312 320 315 318 322 325 327 325 326 327 327 329 335 337 318 282 251 253 260 240 216 223 233 236 205 209 224 226 225 226 226 221 213 205 202 203 203 198 202
303 306 306 309 317 313 314 318 316 326 330 310 317 320 323 325 348 344 318 312 311 316 306 271 252 233 224 216 217 221 220 217 219 224 223 219 211 208 206 200 198 200 206
299 305 309 311 318 316 319 318 245 252 251 244 253 274 297 299 310 306 299 292 290 291 284 259 252 243 234 227 223 220 220 221 225 225 221 219 214 210 207 204 202 205 209
293 301 305 308 313 314 316 318 321 286 228 231 236 244 258 290 296 291 289 288 277 260 254 264 263 255 245 238 238 232 225 218 218 223 223 220 219 215 213 211 209 209 212
285 286 283 294 300 307 313 313 315 322 326 319 230 222 239 262 276 277 278 279 261 230 250 267 274 269 263 254 248 242 233 222 215 217 221 221 219 216 214 214 215 214 212
283 289 300 301 296 298 307 308 311 317 322 326 331 283 219 251 249 251 251 269 292 296 281 272 270 266 262 257 253 250 243 236 228 223 221 221 220 219 219 219 217 207 215
264 255 270 290 293 297 302 307 312 316 319 324 332 338 338 320 315 294 266 290 293 291 295 290 281 272 266 259 255 248 241 236 230 228 226 223 221 221 220 221 223 214 214
275 264 233 267 285 297 302 304 308 311 315 322 330 353 336 319 325 328 322 318 312 312 311 306 296 284 273 257 255 252 246 239 231 232 228 226 225 221 222 221 219 221 218
268 272 274 280 289 292 300 299 302 305 308 314 322 318 226 292 322 328 329 322 320 318 315 312 308 303 294 287 266 254 251 248 236 228 227 225 225 224 223 222 219 219 219
260 265 268 272 278 280 278 287 297 302 306 312 320 321 318 320 320 324 323 324 324 324 320 311 301 302 307 298 286 266 263 257 246 237 230 224 221 222 223 222 221 220 219
254 259 264 269 272 280 285 291 293 297 305 311 316 316 318 319 315 322 321 322 323 322 321 317 313 316 316 308 295 286 284 289 274 247 237 234 225 222 219 219 222 223 222
250 254 257 261 266 273 280 285 288 293 295 303 314 318 320 319 322 330 333 328 325 326 326 325 323 315 310 308 311 323 348 329 305 285 246 237 232 224 221 219 219 220 219
245 249 254 257 259 264 270 275 280 289 294 300 306 309 314 320 328 334 339 338 331 330 328 328 328 324 318 310 321 331 333 312 292 284 268 245 235 227 221 223 224 222 219
Height
1523 1521 1518 1516 1514 1511 1509 1507 1505 1502 1500 1498 1496 1494 1493 1492 1490 1489 1488 1487 1486 1486 1485 1485 1485 1485 1486 1486 1486 1486 1487 1487 1486 1485 1486 1486 1487 1489 1491 1493 1496 1500 1504
1521 1518 1516 1514 1511 1509 1507 1504 1501 1499 1496 1494 1492 1490 1489 1487 1486 1484 1483 1483 1482 1481 1480 1480 1480 1480 1480 1481 1481 1481 1482 1482 1482 1481 1481 1482 1482 1484 1486 1488 1491 1495 1499
1519 1516 1514 1511 1509 1506 1503 1501 1498 1495 1493 1491 1488 1486 1484 1482 1481 1479 1478 1477 1476 1476 1475 1475 1475 1475 1475 1476 1476 1477 1477 1478 1477 1477 1477 1477 1478 1480 1482 1484 1487 1491 1495
1516 1514 1512 1509 1506 1503 1500 1498 1495 1492 1489 1487 1485 1482 1480 1478 1476 1475 1474 1472 1471 1470 1470 1469 1469 1470 1470 1471 1472 1472 1472 1473 1473 1473 1473 1474 1474 1476 1478 1480 1483 1487 1490
1514 1512 1509 1506 1503 1501 1498 1495 1492 1489 1487 1484 1481 1478 1476 1474 1473 1471 1469 1468 1466 1465 1464 1464 1464 1464 1465 1466 1468 1468 1468 1468 1468 1469 1469 1470 1471 1472 1474 1476 1479 1483 1487
1512 1510 1507 1504 1501 1498 1495 1492 1489 1486 1483 1480 1477 1475 1472 1471 1469 1466 1464 1463 1461 1460 1460 1459 1459 1459 1459 1460 1461 1463 1464 1464 1465 1465 1465 1466 1467 1469 1471 1473 1476 1479 1483
1510 1508 1505 1502 1499 1496 1493 1490 1486 1483 1480 1477 1474 1471 1469 1466 1464 1461 1459 1458 1456 1455 1455 1454 1455 1456 1455 1457 1457 1458 1459 1460 1461 1462 1462 1463 1464 1465 1468 1470 1473 1476 1479
1508 1506 1503 1500 1497 1494 1490 1487 1484 1480 1477 1474 1471 1468 1465 1463 1460 1457 1455 1453 1452 1451 1450 1450 1450 1450 1452 1452 1453 1454 1455 1456 1456 1458 1459 1460 1462 1463 1465 1467 1470 1473 1477
1506 1504 1501 1498 1495 1491 1488 1485 1481 1478 1474 1471 1468 1465 1462 1459 1456 1454 1452 1449 1448 1447 1446 1446 1446 1446 1447 1447 1449 1450 1451 1452 1453 1454 1456 1457 1458 1460 1462 1465 1468 1470 1473
1504 1501 1498 1495 1492 1489 1486 1482 1479 1475 1472 1469 1466 1462 1459 1456 1453 1451 1449 1447 1445 1444 1443 1442 1442 1442 1443 1444 1445 1446 1447 1449 1450 1451 1452 1454 1455 1457 1459 1462 1465 1468 1470
1501 1499 1496 1493 1490 1487 1484 1480 1477 1474 1470 1467 1463 1460 1457 1454 1451 1448 1446 1444 1442 1441 1440 1440 1439 1439 1439 1440 1442 1443 1444 1446 1447 1449 1450 1451 1452 1454 1456 1458 1461 1464 1467
1499 1496 1494 1491 1488 1486 1482 1478 1475 1472 1468 1465 1462 1458 1455 1452 1448 1446 1443 1441 1439 1438 1437 1437 1437 1436 1437 1437 1438 1439 1441 1442 1444 1446 1447 1448 1450 1451 1453 1455 1457 1461 1464
1496 1494 1491 1489 1486 1483 1480 1477 1473 1470 1467 1464 1461 1457 1454 1451 1447 1443 1441 1438 1436 1435 1434 1433 1433 1433 1434 1434 1435 1436 1438 1440 1441 1443 1444 1445 1447 1449 1451 1452 1454 1457 1460
1494 1491 1489 1487 1484 1482 1478 1475 1472 1469 1466 1463 1459 1456 1452 1449 1446 1442 1439 1437 1434 1433 1432 1431 1430 1430 1431 1431 1432 1433 1434 1436 1438 1440 1441 1443 1444 1446 1447 1450 1452 1454 1457
1491 1489 1487 1485 1482 1479 1476 1473 1470 1467 1464 1460 1457 1454 1451 1448 1444 1440 1437 1435 1433 1431 1430 1429 1428 1428 1428 1429 1430 1431 1432 1433 1435 1436 1438 1440 1441 1443 1445 1447 1449 1451 1454
1489 1487 1485 1483 1480 1478 1475 1472 1468 1465 1461 1458 1455 1452 1448 1445 1441 1438 1436 1433 1431 1429 1428 1427 1427 1426 1426 1426 1427 1428 1428 1429 1431 1433 1434 1436 1438 1440 1442 1444 1446 1448 1450
1486 1484 1482 1480 1478 1475 1472 1469 1466 1463 1459 1456 1453 1449 1446 1443 1440 1437 1434 1432 1430 1428 1427 1426 1425 1425 1424 1424 1424 1425 1425 1426 1427 1429 1431 1433 1434 1436 1439 1441 1443 1445 1447
1483 1482 1479 1478 1476 1473 1470 1467 1464 1461 1458 1455 1451 1448 1444 1441 1438 1435 1433 1430 1429 1427 1426 1424 1424 1423 1422 1422 1422 1422 1422 1423 1424 1425 1427 1429 1431 1433 1435 1438 1440 1442 1444
1480 1479 1477 1475 1473 1471 1468 1465 1462 1459 1456 1453 1450 1446 1443 1440 1437 1434 1432 1430 1428 1426 1424 1423 1422 1421 1420 1420 1420 1419 1420 1420 1421 1422 1424 1426 1428 1430 1432 1434 1436 1438 1440
1476 1475 1473 1471 1470 1468 1465 1463 1460 1457 1454 1451 1448 1445 1442 1439 1436 1434 1431 1429 1427 1425 1423 1421 1420 1419 1418 1418 1417 1417 1417 1417 1418 1419 1420 1422 1424 1426 1428 1430 1432 1434 1436
1474 1472 1469 1468 1466 1465 1462 1460 1457 1455 1452 1449 1446 1443 1440 1437 1435 1433 1430 1428 1426 1424 1422 1420 1419 1417 1416 1416 1415 1415 1415 1415 1415 1416 1417 1418 1420 1422 1424 1426 1428 1430 1432
1469 1468 1467 1465 1463 1461 1459 1457 1455 1452 1450 1447 1444 1441 1438 1435 1433 1431 1428 1426 1424 1422 1420 1418 1417 1416 1414 1413 1413 1412 1412 1412 1412 1412 1413 1415 1416 1418 1420 1422 1425 1427 1429
1465 1464 1463 1461 1459 1457 1455 1454 1452 1450 1447 1445 1442 1440 1437 1434 1431 1429 1426 1424 1422 1420 1418 1417 1415 1414 1413 1412 1411 1410 1409 1409 1409 1409 1410 1411 1412 1414 1416 1418 1420 1423 1425
1460 1459 1458 1457 1456 1454 1452 1450 1449 1447 1445 1442 1440 1437 1435 1432 1430 1427 1425 1423 1420 1418 1417 1415 1414 1412 1411 1410 1409 1408 1407 1406 1406 1406 1406 1407 1409 1410 1412 1414 1416 1419 1421
1455 1454 1453 1452 1451 1450 1449 1447 1445 1443 1442 1440 1438 1435 1433 1430 1428 1426 1423 1421 1419 1417 1415 1413 1411 1410 1409 1407 1406 1405 1404 1403 1403 1403 1404 1405 1406 1407 1409 1411 1413 1415 1417
1450 1449 1448 1448 1447 1446 1444 1443 1442 1440 1438 1437 1435 1433 1431 1429 1426 1424 1422 1420 1418 1416 1414 1412 1410 1408 1406 1405 1404 1403 1402 1401 1401 1401 1401 1402 1403 1404 1406 1407 1409 1411 1413